"Sample Date","Sample Time","Sample Value","Units","Flow Rate","Sample Interval","Number Channels","Micron Size 0","Counts/Channel 0","Micron Size 1","Counts/Channel 1","Micron Size 2","Counts/Channel 2","Micron Size 3","Counts/Channel 3","Micron Size 4","Counts/Channel 4","Micron Size 5","Counts/Channel 5","Micron Size 6","Counts/Channel 6","Micron Size 7","Counts/Channel 7","Micron Size 8","Counts/Channel 8","Micron Size 9","Counts/Channel 9","Micron Size 10","Counts/Channel 10","Micron Size 11","Counts/Channel 11","Micron Size 12","Counts/Channel 12","Micron Size 13","Counts/Channel 13","Micron Size 14","Counts/Channel 14","Micron Size 15","Counts/Channel 15","Micron Size 16","Counts/Channel 16","Micron Size 17","Counts/Channel 17","Micron Size 18","Counts/Channel 18","Micron Size 19","Counts/Channel 19","Micron Size 20","Counts/Channel 20","Micron Size 21","Counts/Channel 21","Micron Size 22","Counts/Channel 22","Micron Size 23","Counts/Channel 23","Micron Size 24","Counts/Channel 24","Micron Size 25","Counts/Channel 25","Micron Size 26","Counts/Channel 26","Micron Size 27","Counts/Channel 27","Micron Size 28","Counts/Channel 28","Micron Size 29","Counts/Channel 29","Micron Size 30","Counts/Channel 30","Micron Size 31","Counts/Channel 31"
"03/09/08","13:00:03",10277.000,"cc",28372.885,6.00,6,0.100,9390.000,0.200,800.000,0.300,79.000,0.500,8.000,1.000,0,5.000,0
"03/09/08","13:00:09",9431.000,"cc",28400.088,6.00,6,0.100,8598.000,0.200,734.000,0.300,87.000,0.500,11.000,1.000,1.000,5.000,0
"03/09/08","13:00:15",9940.000,"cc",28335.465,6.00,6,0.100,9053.000,0.200,796.000,0.300,81.000,0.500,10.000,1.000,0,5.000,0
"03/09/08","13:00:21",10188.000,"cc",28270.906,6.00,6,0.100,9253.000,0.200,821.000,0.300,104.000,0.500,10.000,1.000,0,5.000,0
"03/09/08","13:00:27",10125.000,"cc",28264.068,6.00,6,0.100,9226.000,0.200,797.000,0.300,89.000,0.500,13.000,1.000,0,5.000,0
"03/09/08","13:00:33",10562.000,"cc",28313.252,6.00,6,0.100,9468.000,0.200,923.000,0.300,150.000,0.500,21.000,1.000,0,5.000,0
"03/09/08","13:00:39",10010.000,"cc",28293.506,6.00,6,0.100,9111.000,0.200,802.000,0.300,95.000,0.500,1.000,1.000,1.000,5.000,0
"03/09/08","13:00:45",9773.000,"cc",28406.932,6.00,6,0.100,8893.000,0.200,773.000,0.300,92.000,0.500,15.000,1.000,0,5.000,0
"03/09/08","13:00:51",9477.000,"cc",28302.647,6.00,6,0.100,8707.000,0.200,695.000,0.300,65.000,0.500,9.000,1.000,1.000,5.000,0
"03/09/08","13:00:57",9846.000,"cc",28281.875,6.00,6,0.100,9013.000,0.200,726.000,0.300,100.000,0.500,7.000,1.000,0,5.000,0
"03/09/08","13:01:03",9875.000,"cc",28349.809,6.00,6,0.100,8911.000,0.200,844.000,0.300,107.000,0.500,13.000,1.000,0,5.000,0
"03/09/08","13:01:09",9213.000,"cc",28313.580,6.00,6,0.100,8419.000,0.200,710.000,0.300,76.000,0.500,8.000,1.000,0,5.000,0
"03/09/08","13:01:15",9875.000,"cc",28324.363,6.00,6,0.100,8999.000,0.200,775.000,0.300,91.000,0.500,9.000,1.000,1.000,5.000,0
"03/09/08","13:01:21",9820.000,"cc",28361.768,6.00,6,0.100,8876.000,0.200,832.000,0.300,100.000,0.500,12.000,1.000,0,5.000,0
"03/09/08","13:01:27",9468.000,"cc",28321.707,6.00,6,0.100,8647.000,0.200,728.000,0.300,82.000,0.500,11.000,1.000,0,5.000,0
"03/09/08","13:01:33",9619.000,"cc",28265.172,6.00,6,0.100,8833.000,0.200,717.000,0.300,64.000,0.500,5.000,1.000,0,5.000,0
"03/09/08","13:01:39",9203.000,"cc",28359.723,6.00,6,0.100,8389.000,0.200,731.000,0.300,80.000,0.500,3.000,1.000,0,5.000,0
"03/09/08","13:01:45",9933.000,"cc",28279.854,6.00,6,0.100,8997.000,0.200,825.000,0.300,99.000,0.500,12.000,1.000,0,5.000,0
"03/09/08","13:01:51",9997.000,"cc",28310.887,6.00,6,0.100,9011.000,0.200,866.000,0.300,102.000,0.500,17.000,1.000,1.000,5.000,0
"03/09/08","13:01:57",9469.000,"cc",28415.147,6.00,6,0.100,8579.000,0.200,767.000,0.300,115.000,0.500,8.000,1.000,0,5.000,0
"03/09/08","13:02:03",10128.000,"cc",28241.143,6.00,6,0.100,9161.000,0.200,855.000,0.300,97.000,0.500,14.000,1.000,1.000,5.000,0
"03/09/08","13:02:09",10088.000,"cc",28340.545,6.00,6,0.100,9143.000,0.200,830.000,0.300,107.000,0.500,8.000,1.000,0,5.000,0
"03/09/08","13:02:15",10198.000,"cc",28308.455,6.00,6,0.100,9197.000,0.200,890.000,0.300,92.000,0.500,19.000,1.000,0,5.000,0
"03/09/08","13:02:21",9387.000,"cc",28271.773,6.00,6,0.100,8516.000,0.200,760.000,0.300,101.000,0.500,10.000,1.000,0,5.000,0
"03/09/08","13:02:27",9650.000,"cc",28353.299,6.00,6,0.100,8767.000,0.200,792.000,0.300,84.000,0.500,7.000,1.000,0,5.000,0
"03/09/08","13:02:33",9514.000,"cc",28405.713,6.00,6,0.100,8686.000,0.200,740.000,0.300,80.000,0.500,8.000,1.000,0,5.000,0
"03/09/08","13:02:39",9754.000,"cc",28271.033,6.00,6,0.100,8835.000,0.200,807.000,0.300,102.000,0.500,10.000,1.000,0,5.000,0
"03/09/08","13:02:45",9803.000,"cc",28210.277,6.00,6,0.100,8901.000,0.200,794.000,0.300,98.000,0.500,10.000,1.000,0,5.000,0
"03/09/08","13:02:51",9323.000,"cc",28421.332,6.00,6,0.100,8498.000,0.200,728.000,0.300,93.000,0.500,4.000,1.000,0,5.000,0
"03/09/08","13:02:57",9054.000,"cc",28247.799,6.00,6,0.100,8303.000,0.200,688.000,0.300,51.000,0.500,11.000,1.000,1.000,5.000,0
"03/09/08","13:03:03",9733.000,"cc",28365.584,6.00,6,0.100,8795.000,0.200,826.000,0.300,96.000,0.500,16.000,1.000,0,5.000,0
"03/09/08","13:03:09",9682.000,"cc",28284.486,6.00,6,0.100,8780.000,0.200,793.000,0.300,102.000,0.500,7.000,1.000,0,5.000,0
"03/09/08","13:03:15",9044.000,"cc",28347.100,6.00,6,0.100,8318.000,0.200,654.000,0.300,69.000,0.500,3.000,1.000,0,5.000,0
"03/09/08","13:03:21",8866.000,"cc",28354.320,6.00,6,0.100,8123.000,0.200,669.000,0.300,70.000,0.500,4.000,1.000,0,5.000,0
"03/09/08","13:03:27",9444.000,"cc",28315.854,6.00,6,0.100,8579.000,0.200,748.000,0.300,100.000,0.500,17.000,1.000,0,5.000,0
"03/09/08","13:03:33",9375.000,"cc",28248.172,6.00,6,0.100,8518.000,0.200,755.000,0.300,93.000,0.500,9.000,1.000,0,5.000,0
"03/09/08","13:03:39",9355.000,"cc",28378.482,6.00,6,0.100,8551.000,0.200,717.000,0.300,80.000,0.500,6.000,1.000,1.000,5.000,0
"03/09/08","13:03:45",9232.000,"cc",28295.057,6.00,6,0.100,8445.000,0.200,695.000,0.300,82.000,0.500,10.000,1.000,0,5.000,0
"03/09/08","13:03:51",8718.000,"cc",28260.387,6.00,6,0.100,7953.000,0.200,678.000,0.300,78.000,0.500,9.000,1.000,0,5.000,0
"03/09/08","13:03:57",8806.000,"cc",28312.354,6.00,6,0.100,7998.000,0.200,721.000,0.300,82.000,0.500,5.000,1.000,0,5.000,0
"03/09/08","13:04:03",8958.000,"cc",28370.543,6.00,6,0.100,8182.000,0.200,705.000,0.300,69.000,0.500,2.000,1.000,0,5.000,0
"03/09/08","13:04:09",9109.000,"cc",28298.525,6.00,6,0.100,8243.000,0.200,764.000,0.300,92.000,0.500,10.000,1.000,0,5.000,0
"03/09/08","13:04:15",9442.000,"cc",28357.471,6.00,6,0.100,8569.000,0.200,762.000,0.300,98.000,0.500,13.000,1.000,0,5.000,0
"03/09/08","13:04:21",9068.000,"cc",28328.076,6.00,6,0.100,8202.000,0.200,756.000,0.300,102.000,0.500,8.000,1.000,0,5.000,0
"03/09/08","13:04:27",9193.000,"cc",28335.318,6.00,6,0.100,8342.000,0.200,744.000,0.300,100.000,0.500,7.000,1.000,0,5.000,0
"03/09/08","13:04:33",9373.000,"cc",28265.352,6.00,6,0.100,8510.000,0.200,748.000,0.300,105.000,0.500,10.000,1.000,0,5.000,0
"03/09/08","13:04:39",9517.000,"cc",28311.209,6.00,6,0.100,8559.000,0.200,838.000,0.300,106.000,0.500,14.000,1.000,0,5.000,0
"03/09/08","13:04:45",9649.000,"cc",28312.047,6.00,6,0.100,8663.000,0.200,849.000,0.300,128.000,0.500,9.000,1.000,0,5.000,0
"03/09/08","13:04:51",9126.000,"cc",28333.227,6.00,6,0.100,8246.000,0.200,752.000,0.300,117.000,0.500,10.000,1.000,1.000,5.000,0
"03/09/08","13:04:57",8998.000,"cc",28297.900,6.00,6,0.100,8152.000,0.200,715.000,0.300,118.000,0.500,13.000,1.000,0,5.000,0
"03/09/08","13:05:03",9316.000,"cc",28250.922,6.00,6,0.100,8431.000,0.200,777.000,0.300,94.000,0.500,14.000,1.000,0,5.000,0
"03/09/08","13:05:09",9337.000,"cc",28320.164,6.00,6,0.100,8405.000,0.200,806.000,0.300,113.000,0.500,12.000,1.000,1.000,5.000,0
"03/09/08","13:05:15",9905.000,"cc",28269.762,6.00,6,0.100,8935.000,0.200,851.000,0.300,97.000,0.500,21.000,1.000,1.000,5.000,0
"03/09/08","13:05:21",9360.000,"cc",28354.199,6.00,6,0.100,8510.000,0.200,742.000,0.300,97.000,0.500,9.000,1.000,2.000,5.000,0
"03/09/08","13:05:27",9255.000,"cc",28332.826,6.00,6,0.100,8328.000,0.200,797.000,0.300,123.000,0.500,7.000,1.000,0,5.000,0
"03/09/08","13:05:33",8966.000,"cc",28271.117,6.00,6,0.100,8127.000,0.200,739.000,0.300,93.000,0.500,7.000,1.000,0,5.000,0
"03/09/08","13:05:39",8488.000,"cc",28354.555,6.00,6,0.100,7687.000,0.200,683.000,0.300,104.000,0.500,14.000,1.000,0,5.000,0
"03/09/08","13:05:45",8831.000,"cc",28300.025,6.00,6,0.100,7975.000,0.200,755.000,0.300,93.000,0.500,7.000,1.000,1.000,5.000,0
"03/09/08","13:05:51",9262.000,"cc",28395.625,6.00,6,0.100,8418.000,0.200,723.000,0.300,113.000,0.500,7.000,1.000,1.000,5.000,0
"03/09/08","13:05:57",9220.000,"cc",28271.713,6.00,6,0.100,8314.000,0.200,775.000,0.300,117.000,0.500,13.000,1.000,1.000,5.000,0
"03/09/08","13:06:03",9407.000,"cc",28262.518,6.00,6,0.100,8541.000,0.200,743.000,0.300,112.000,0.500,10.000,1.000,1.000,5.000,0
"03/09/08","13:06:09",9014.000,"cc",28355.523,6.00,6,0.100,8159.000,0.200,745.000,0.300,95.000,0.500,15.000,1.000,0,5.000,0
"03/09/08","13:06:15",9197.000,"cc",28384.059,6.00,6,0.100,8316.000,0.200,782.000,0.300,85.000,0.500,13.000,1.000,1.000,5.000,0
"03/09/08","13:06:21",9308.000,"cc",28320.789,6.00,6,0.100,8404.000,0.200,759.000,0.300,135.000,0.500,9.000,1.000,1.000,5.000,0
"03/09/08","13:06:27",8811.000,"cc",28219.369,6.00,6,0.100,7994.000,0.200,713.000,0.300,91.000,0.500,12.000,1.000,1.000,5.000,0
"03/09/08","13:06:33",8529.000,"cc",28352.836,6.00,6,0.100,7739.000,0.200,698.000,0.300,77.000,0.500,15.000,1.000,0,5.000,0
"03/09/08","13:06:39",8717.000,"cc",28332.156,6.00,6,0.100,7927.000,0.200,686.000,0.300,98.000,0.500,6.000,1.000,0,5.000,0
"03/09/08","13:06:45",8884.000,"cc",28222.315,6.00,6,0.100,8051.000,0.200,727.000,0.300,95.000,0.500,11.000,1.000,0,5.000,0
"03/09/08","13:06:51",8579.000,"cc",28367.367,6.00,6,0.100,7797.000,0.200,695.000,0.300,77.000,0.500,10.000,1.000,0,5.000,0
"03/09/08","13:06:57",8497.000,"cc",28463.287,6.00,6,0.100,7786.000,0.200,607.000,0.300,90.000,0.500,13.000,1.000,1.000,5.000,0
"03/09/08","13:07:03",8280.000,"cc",28293.193,6.00,6,0.100,7499.000,0.200,678.000,0.300,91.000,0.500,12.000,1.000,0,5.000,0
"03/09/08","13:07:09",8308.000,"cc",28277.303,6.00,6,0.100,7533.000,0.200,670.000,0.300,92.000,0.500,13.000,1.000,0,5.000,0
"03/09/08","13:07:15",8194.000,"cc",28289.867,6.00,6,0.100,7436.000,0.200,672.000,0.300,78.000,0.500,8.000,1.000,0,5.000,0
"03/09/08","13:07:21",8252.000,"cc",28328.604,6.00,6,0.100,7537.000,0.200,639.000,0.300,71.000,0.500,4.000,1.000,1.000,5.000,0
"03/09/08","13:07:27",8384.000,"cc",28335.264,6.00,6,0.100,7639.000,0.200,667.000,0.300,70.000,0.500,8.000,1.000,0,5.000,0
"03/09/08","13:07:33",8488.000,"cc",28308.232,6.00,6,0.100,7756.000,0.200,646.000,0.300,75.000,0.500,11.000,1.000,0,5.000,0
"03/09/08","13:07:39",8156.000,"cc",28347.148,6.00,6,0.100,7394.000,0.200,667.000,0.300,83.000,0.500,11.000,1.000,1.000,5.000,0
"03/09/08","13:07:45",8302.000,"cc",28312.750,6.00,6,0.100,7535.000,0.200,672.000,0.300,82.000,0.500,12.000,1.000,1.000,5.000,0
"03/09/08","13:07:51",7737.000,"cc",28326.520,6.00,6,0.100,7079.000,0.200,587.000,0.300,70.000,0.500,1.000,1.000,0,5.000,0
"03/09/08","13:07:57",8130.000,"cc",28286.922,6.00,6,0.100,7394.000,0.200,651.000,0.300,77.000,0.500,7.000,1.000,1.000,5.000,0
"03/09/08","13:08:03",8121.000,"cc",28324.967,6.00,6,0.100,7350.000,0.200,672.000,0.300,90.000,0.500,8.000,1.000,1.000,5.000,0
"03/09/08","13:08:09",7738.000,"cc",28335.010,6.00,6,0.100,7063.000,0.200,608.000,0.300,63.000,0.500,4.000,1.000,0,5.000,0
"03/09/08","13:08:15",7700.000,"cc",28236.279,6.00,6,0.100,7069.000,0.200,571.000,0.300,51.000,0.500,9.000,1.000,0,5.000,0
"03/09/08","13:08:21",8061.000,"cc",28296.533,6.00,6,0.100,7336.000,0.200,647.000,0.300,70.000,0.500,8.000,1.000,0,5.000,0
"03/09/08","13:08:27",8369.000,"cc",28337.318,6.00,6,0.100,7662.000,0.200,624.000,0.300,78.000,0.500,5.000,1.000,0,5.000,0
"03/09/08","13:08:33",7630.000,"cc",28329.272,6.00,6,0.100,7006.000,0.200,565.000,0.300,54.000,0.500,5.000,1.000,0,5.000,0
"03/09/08","13:08:39",8371.000,"cc",28299.467,6.00,6,0.100,7540.000,0.200,724.000,0.300,98.000,0.500,9.000,1.000,0,5.000,0
"03/09/08","13:08:45",7993.000,"cc",28358.789,6.00,6,0.100,7248.000,0.200,640.000,0.300,86.000,0.500,17.000,1.000,2.000,5.000,0
"03/09/08","13:08:51",8205.000,"cc",28341.660,6.00,6,0.100,7449.000,0.200,652.000,0.300,91.000,0.500,12.000,1.000,1.000,5.000,0
"03/09/08","13:08:57",8105.000,"cc",28302.143,6.00,6,0.100,7334.000,0.200,656.000,0.300,99.000,0.500,16.000,1.000,0,5.000,0
"03/09/08","13:09:03",8095.000,"cc",28305.326,6.00,6,0.100,7344.000,0.200,668.000,0.300,77.000,0.500,6.000,1.000,0,5.000,0
"03/09/08","13:09:09",7846.000,"cc",28330.672,6.00,6,0.100,7129.000,0.200,642.000,0.300,66.000,0.500,9.000,1.000,0,5.000,0
"03/09/08","13:09:15",7693.000,"cc",28296.719,6.00,6,0.100,7007.000,0.200,600.000,0.300,76.000,0.500,10.000,1.000,0,5.000,0
"03/09/08","13:09:21",7791.000,"cc",28249.383,6.00,6,0.100,7061.000,0.200,633.000,0.300,89.000,0.500,8.000,1.000,0,5.000,0
"03/09/08","13:09:27",8337.000,"cc",28319.402,6.00,6,0.100,7540.000,0.200,687.000,0.300,95.000,0.500,14.000,1.000,1.000,5.000,0
"03/09/08","13:09:33",8004.000,"cc",28324.080,6.00,6,0.100,7287.000,0.200,630.000,0.300,82.000,0.500,5.000,1.000,0,5.000,0
"03/09/08","13:09:39",7879.000,"cc",28380.414,6.00,6,0.100,7210.000,0.200,590.000,0.300,73.000,0.500,6.000,1.000,0,5.000,0
"03/09/08","13:09:45",8209.000,"cc",28336.119,6.00,6,0.100,7420.000,0.200,690.000,0.300,94.000,0.500,5.000,1.000,0,5.000,0
"03/09/08","13:09:51",7839.000,"cc",28364.408,6.00,6,0.100,7109.000,0.200,657.000,0.300,67.000,0.500,6.000,1.000,0,5.000,0
"03/09/08","13:09:57",8094.000,"cc",28363.197,6.00,6,0.100,7271.000,0.200,710.000,0.300,103.000,0.500,10.000,1.000,0,5.000,0
"03/09/08","13:10:03",7792.000,"cc",28280.074,6.00,6,0.100,6996.000,0.200,675.000,0.300,112.000,0.500,9.000,1.000,0,5.000,0
"03/09/08","13:10:09",7747.000,"cc",28260.586,6.00,6,0.100,6893.000,0.200,754.000,0.300,89.000,0.500,11.000,1.000,0,5.000,0
"03/09/08","13:10:15",8184.000,"cc",28230.098,6.00,6,0.100,7385.000,0.200,697.000,0.300,95.000,0.500,7.000,1.000,0,5.000,0
"03/09/08","13:10:21",8082.000,"cc",28322.732,6.00,6,0.100,7294.000,0.200,685.000,0.300,96.000,0.500,7.000,1.000,0,5.000,0
"03/09/08","13:10:27",7387.000,"cc",28319.568,6.00,6,0.100,6712.000,0.200,564.000,0.300,100.000,0.500,11.000,1.000,0,5.000,0
"03/09/08","13:10:33",7177.000,"cc",28347.660,6.00,6,0.100,6510.000,0.200,597.000,0.300,60.000,0.500,10.000,1.000,0,5.000,0
"03/09/08","13:10:39",7376.000,"cc",28301.912,6.00,6,0.100,6670.000,0.200,617.000,0.300,83.000,0.500,6.000,1.000,0,5.000,0
"03/09/08","13:10:45",7696.000,"cc",28370.316,6.00,6,0.100,6978.000,0.200,622.000,0.300,87.000,0.500,9.000,1.000,0,5.000,0
"03/09/08","13:10:51",6920.000,"cc",28299.977,6.00,6,0.100,6317.000,0.200,541.000,0.300,56.000,0.500,6.000,1.000,0,5.000,0
"03/09/08","13:10:57",7608.000,"cc",28249.744,6.00,6,0.100,6921.000,0.200,609.000,0.300,62.000,0.500,16.000,1.000,0,5.000,0
"03/09/08","13:11:03",7514.000,"cc",28346.531,6.00,6,0.100,6847.000,0.200,579.000,0.300,75.000,0.500,13.000,1.000,0,5.000,0
"03/09/08","13:11:09",7438.000,"cc",28336.531,6.00,6,0.100,6836.000,0.200,529.000,0.300,62.000,0.500,11.000,1.000,0,5.000,0
"03/09/08","13:11:15",7755.000,"cc",28317.731,6.00,6,0.100,6997.000,0.200,655.000,0.300,98.000,0.500,5.000,1.000,0,5.000,0
"03/09/08","13:11:21",7380.000,"cc",28364.527,6.00,6,0.100,6639.000,0.200,645.000,0.300,87.000,0.500,9.000,1.000,0,5.000,0
"03/09/08","13:11:27",7898.000,"cc",28329.102,6.00,6,0.100,7056.000,0.200,712.000,0.300,114.000,0.500,16.000,1.000,0,5.000,0
"03/09/08","13:11:33",8031.000,"cc",28351.469,6.00,6,0.100,7194.000,0.200,709.000,0.300,112.000,0.500,14.000,1.000,2.000,5.000,0
"03/09/08","13:11:39",7988.000,"cc",28322.705,6.00,6,0.100,7166.000,0.200,709.000,0.300,100.000,0.500,11.000,1.000,2.000,5.000,0
"03/09/08","13:11:45",7499.000,"cc",28315.260,6.00,6,0.100,6838.000,0.200,579.000,0.300,69.000,0.500,12.000,1.000,1.000,5.000,0
"03/09/08","13:11:51",7423.000,"cc",28324.174,6.00,6,0.100,6708.000,0.200,625.000,0.300,77.000,0.500,13.000,1.000,0,5.000,0
"03/09/08","13:11:57",7712.000,"cc",28260.117,6.00,6,0.100,6970.000,0.200,619.000,0.300,108.000,0.500,15.000,1.000,0,5.000,0
"03/09/08","13:12:03",7694.000,"cc",28357.445,6.00,6,0.100,6939.000,0.200,665.000,0.300,82.000,0.500,8.000,1.000,0,5.000,0
"03/09/08","13:12:09",7685.000,"cc",28410.941,6.00,6,0.100,6938.000,0.200,644.000,0.300,91.000,0.500,10.000,1.000,2.000,5.000,0
"03/09/08","13:12:15",7286.000,"cc",28298.982,6.00,6,0.100,6631.000,0.200,571.000,0.300,76.000,0.500,8.000,1.000,0,5.000,0
"03/09/08","13:12:21",7549.000,"cc",28350.848,6.00,6,0.100,6792.000,0.200,644.000,0.300,100.000,0.500,13.000,1.000,0,5.000,0
"03/09/08","13:12:27",7755.000,"cc",28265.844,6.00,6,0.100,6968.000,0.200,687.000,0.300,95.000,0.500,5.000,1.000,0,5.000,0
"03/09/08","13:12:33",6845.000,"cc",28318.367,6.00,6,0.100,6224.000,0.200,557.000,0.300,58.000,0.500,6.000,1.000,0,5.000,0
"03/09/08","13:12:39",7200.000,"cc",28223.971,6.00,6,0.100,6489.000,0.200,615.000,0.300,88.000,0.500,8.000,1.000,0,5.000,0
"03/09/08","13:12:45",7262.000,"cc",28313.451,6.00,6,0.100,6564.000,0.200,612.000,0.300,71.000,0.500,15.000,1.000,0,5.000,0
"03/09/08","13:12:51",6644.000,"cc",28341.758,6.00,6,0.100,6014.000,0.200,561.000,0.300,60.000,0.500,9.000,1.000,0,5.000,0
"03/09/08","13:12:57",6813.000,"cc",28379.195,6.00,6,0.100,6226.000,0.200,526.000,0.300,56.000,0.500,5.000,1.000,0,5.000,0
"03/09/08","13:13:03",7164.000,"cc",28314.059,6.00,6,0.100,6512.000,0.200,580.000,0.300,69.000,0.500,3.000,1.000,0,5.000,0
"03/09/08","13:13:09",6937.000,"cc",28231.553,6.00,6,0.100,6338.000,0.200,528.000,0.300,62.000,0.500,9.000,1.000,0,5.000,0
"03/09/08","13:13:15",7237.000,"cc",28390.701,6.00,6,0.100,6582.000,0.200,576.000,0.300,72.000,0.500,6.000,1.000,1.000,5.000,0
"03/09/08","13:13:21",7223.000,"cc",28286.234,6.00,6,0.100,6540.000,0.200,606.000,0.300,68.000,0.500,9.000,1.000,0,5.000,0
"03/09/08","13:13:27",6530.000,"cc",28397.291,6.00,6,0.100,5949.000,0.200,507.000,0.300,68.000,0.500,6.000,1.000,0,5.000,0
"03/09/08","13:13:33",6591.000,"cc",28344.404,6.00,6,0.100,6026.000,0.200,514.000,0.300,46.000,0.500,5.000,1.000,0,5.000,0
"03/09/08","13:13:39",7060.000,"cc",28284.180,6.00,6,0.100,6417.000,0.200,557.000,0.300,82.000,0.500,3.000,1.000,1.000,5.000,0
"03/09/08","13:13:45",6859.000,"cc",28329.168,6.00,6,0.100,6245.000,0.200,527.000,0.300,77.000,0.500,10.000,1.000,0,5.000,0
"03/09/08","13:13:51",6998.000,"cc",28321.004,6.00,6,0.100,6397.000,0.200,516.000,0.300,77.000,0.500,8.000,1.000,0,5.000,0
"03/09/08","13:13:57",7151.000,"cc",28255.346,6.00,6,0.100,6489.000,0.200,573.000,0.300,74.000,0.500,15.000,1.000,0,5.000,0
"03/09/08","13:14:03",6505.000,"cc",28372.690,6.00,6,0.100,5919.000,0.200,519.000,0.300,59.000,0.500,8.000,1.000,0,5.000,0
"03/09/08","13:14:09",6643.000,"cc",28331.973,6.00,6,0.100,6060.000,0.200,519.000,0.300,54.000,0.500,10.000,1.000,0,5.000,0
"03/09/08","13:14:15",7104.000,"cc",28291.551,6.00,6,0.100,6442.000,0.200,572.000,0.300,81.000,0.500,9.000,1.000,0,5.000,0
"03/09/08","13:14:21",6406.000,"cc",28342.711,6.00,6,0.100,5831.000,0.200,495.000,0.300,71.000,0.500,9.000,1.000,0,5.000,0
"03/09/08","13:14:27",6840.000,"cc",28369.418,6.00,6,0.100,6264.000,0.200,510.000,0.300,61.000,0.500,4.000,1.000,1.000,5.000,0
"03/09/08","13:14:33",6554.000,"cc",28244.549,6.00,6,0.100,5927.000,0.200,567.000,0.300,54.000,0.500,6.000,1.000,0,5.000,0
"03/09/08","13:14:39",7115.000,"cc",28244.002,6.00,6,0.100,6417.000,0.200,604.000,0.300,85.000,0.500,8.000,1.000,1.000,5.000,0
"03/09/08","13:14:45",7209.000,"cc",28351.260,6.00,6,0.100,6488.000,0.200,626.000,0.300,88.000,0.500,7.000,1.000,0,5.000,0
"03/09/08","13:14:51",7049.000,"cc",28257.334,6.00,6,0.100,6367.000,0.200,590.000,0.300,84.000,0.500,8.000,1.000,0,5.000,0
"03/09/08","13:14:57",6890.000,"cc",28366.695,6.00,6,0.100,6279.000,0.200,533.000,0.300,74.000,0.500,4.000,1.000,0,5.000,0
"03/09/08","13:15:03",6493.000,"cc",28280.760,6.00,6,0.100,5884.000,0.200,549.000,0.300,56.000,0.500,4.000,1.000,0,5.000,0
"03/09/08","13:15:09",6969.000,"cc",28395.104,6.00,6,0.100,6372.000,0.200,520.000,0.300,72.000,0.500,5.000,1.000,0,5.000,0
"03/09/08","13:15:15",6803.000,"cc",28368.051,6.00,6,0.100,6194.000,0.200,536.000,0.300,64.000,0.500,9.000,1.000,0,5.000,0
"03/09/08","13:15:21",6883.000,"cc",28326.863,6.00,6,0.100,6261.000,0.200,548.000,0.300,68.000,0.500,6.000,1.000,0,5.000,0
"03/09/08","13:15:27",6700.000,"cc",28329.770,6.00,6,0.100,6096.000,0.200,539.000,0.300,61.000,0.500,4.000,1.000,0,5.000,0
"03/09/08","13:15:33",7112.000,"cc",28284.520,6.00,6,0.100,6395.000,0.200,622.000,0.300,89.000,0.500,6.000,1.000,0,5.000,0
"03/09/08","13:15:39",6620.000,"cc",28209.938,6.00,6,0.100,5985.000,0.200,546.000,0.300,72.000,0.500,16.000,1.000,1.000,5.000,0
"03/09/08","13:15:45",6917.000,"cc",28310.398,6.00,6,0.100,6251.000,0.200,583.000,0.300,76.000,0.500,7.000,1.000,0,5.000,0
"03/09/08","13:15:51",6691.000,"cc",28291.611,6.00,6,0.100,6129.000,0.200,507.000,0.300,50.000,0.500,5.000,1.000,0,5.000,0
"03/09/08","13:15:57",6343.000,"cc",28325.877,6.00,6,0.100,5783.000,0.200,489.000,0.300,64.000,0.500,7.000,1.000,0,5.000,0
"03/09/08","13:16:03",6688.000,"cc",28299.580,6.00,6,0.100,6072.000,0.200,547.000,0.300,61.000,0.500,7.000,1.000,1.000,5.000,0
"03/09/08","13:16:09",6835.000,"cc",28294.242,6.00,6,0.100,6174.000,0.200,577.000,0.300,75.000,0.500,7.000,1.000,2.000,5.000,0
"03/09/08","13:16:15",6168.000,"cc",28374.518,6.00,6,0.100,5623.000,0.200,471.000,0.300,68.000,0.500,6.000,1.000,0,5.000,0
"03/09/08","13:16:21",6769.000,"cc",28329.795,6.00,6,0.100,6052.000,0.200,613.000,0.300,97.000,0.500,6.000,1.000,1.000,5.000,0
"03/09/08","13:16:27",6632.000,"cc",28379.736,6.00,6,0.100,5981.000,0.200,560.000,0.300,80.000,0.500,11.000,1.000,0,5.000,0
"03/09/08","13:16:33",6706.000,"cc",28222.359,6.00,6,0.100,6082.000,0.200,559.000,0.300,59.000,0.500,6.000,1.000,0,5.000,0
"03/09/08","13:16:39",6525.000,"cc",28320.106,6.00,6,0.100,5977.000,0.200,491.000,0.300,52.000,0.500,5.000,1.000,0,5.000,0
"03/09/08","13:16:45",6432.000,"cc",28345.096,6.00,6,0.100,5839.000,0.200,531.000,0.300,56.000,0.500,6.000,1.000,0,5.000,0
"03/09/08","13:16:51",6712.000,"cc",28312.826,6.00,6,0.100,6131.000,0.200,504.000,0.300,70.000,0.500,7.000,1.000,0,5.000,0
"03/09/08","13:16:57",6565.000,"cc",28423.184,6.00,6,0.100,6009.000,0.200,494.000,0.300,56.000,0.500,6.000,1.000,0,5.000,0
"03/09/08","13:17:03",6467.000,"cc",28288.231,6.00,6,0.100,5876.000,0.200,519.000,0.300,67.000,0.500,5.000,1.000,0,5.000,0
"03/09/08","13:17:09",6857.000,"cc",28243.305,6.00,6,0.100,6206.000,0.200,570.000,0.300,73.000,0.500,8.000,1.000,0,5.000,0
"03/09/08","13:17:15",6999.000,"cc",28351.592,6.00,6,0.100,6361.000,0.200,574.000,0.300,57.000,0.500,7.000,1.000,0,5.000,0
"03/09/08","13:17:21",7173.000,"cc",28328.893,6.00,6,0.100,6489.000,0.200,591.000,0.300,82.000,0.500,11.000,1.000,0,5.000,0
"03/09/08","13:17:27",6215.000,"cc",28395.758,6.00,6,0.100,5633.000,0.200,508.000,0.300,64.000,0.500,10.000,1.000,0,5.000,0
"03/09/08","13:17:33",7302.000,"cc",28253.074,6.00,6,0.100,6534.000,0.200,652.000,0.300,107.000,0.500,9.000,1.000,0,5.000,0
"03/09/08","13:17:39",6803.000,"cc",28319.830,6.00,6,0.100,6101.000,0.200,597.000,0.300,89.000,0.500,16.000,1.000,0,5.000,0
"03/09/08","13:17:45",6264.000,"cc",28402.008,6.00,6,0.100,5611.000,0.200,549.000,0.300,85.000,0.500,19.000,1.000,0,5.000,0
"03/09/08","13:17:51",6243.000,"cc",28368.895,6.00,6,0.100,5622.000,0.200,529.000,0.300,84.000,0.500,7.000,1.000,1.000,5.000,0
"03/09/08","13:17:57",6101.000,"cc",28275.660,6.00,6,0.100,5582.000,0.200,472.000,0.300,45.000,0.500,2.000,1.000,0,5.000,0
"03/09/08","13:18:03",5988.000,"cc",28304.998,6.00,6,0.100,5503.000,0.200,443.000,0.300,37.000,0.500,4.000,1.000,1.000,5.000,0